Regional Weather Roundup
Issued by NWS State College, PA

Home | Current Version | Previous Version | Graphics & Text | Print | Product List | Glossary Off
Versions: 1 2 3 4 5 6 7 8 9 10 11 12 13 14 15 16 17 18 19 20 21 22 23 24 25 26 27 28 29 30 31 32 33 34 35 36 37 38 39 40 41 42 43 44 45 46 47 48 49 50

000
ASUS41 KCTP 021010
RWRCTP

REGIONAL WEATHER ROUNDUP
NATIONAL WEATHER SERVICE STATE COLLEGE PA
600 AM EDT SUN AUG 02 2015

Note: "fair" indicates few or no clouds below 12,000 feet with no
significant weather and/or obstructions to visibility.

* = STATION THAT DOES NOT REPORT PRECIPITATION /E.G. RAIN...SNOW...ETC/
    THUNDER OR FOG.

PAZ002>004-007>009-013>016-020>023-029>032-021100-
WESTERN PENNSYLVANIA

CITY           SKY/WX    TMP DP  RH WIND       PRES   REMARKS
ERIE           CLEAR     65  56  72 S6        29.89R
MEADVILLE      CLOUDY    62  54  74 S6        29.93S
FRANKLIN*      MOCLDY    57  52  82 SW6       29.95S
NEW CASTLE     PTSUNNY   61  58  90 CALM      29.95R
BEAVER COUNTY  NOT AVBL
BUTLER*        MOCLDY    57  55  94 CALM      29.96S
PITTSBURGH INT PTCLDY    64  56  75 W7        29.95S
PITTSBURGH     CLEAR     65  53  65 SW6       29.95S
INDIANA*       CLEAR     61  57  88 CALM      29.99R
LATROBE        NOT AVBL
WASHINGTON CO* NOT AVBL
$$

PAZ004>006-010>012-017>019-024>028-033>037-041-042-045-046-049>053-021100-
CENTRAL PENNSYLVANIA

CITY           SKY/WX    TMP DP  RH WIND       PRES   REMARKS
BRADFORD       CLEAR     58  50  75 SW5       29.95S
DUBOIS         CLEAR     57  53  86 SW5       29.95S
CLEARFIELD     FOG       53  52  96 CALM      29.96S VSB 3/4
JOHNSTOWN      CLEAR     60  52  74 SW6       29.99R
ALTOONA        CLEAR     59  54  83 CALM      29.97R
STATE COLLEGE  CLEAR     57  55  94 S6        29.94R
WILLIAMSPORT   CLEAR     57  54  89 NW3       29.91S
SELINSGROVE    FOG       57  56  96 CALM      29.93R VSB 1/4
FT INDIANTOWN  CLEAR     58  56  92 N3        29.92R
CAPITAL CITY   CLEAR     61  57  87 SW5       29.92R
HARRISBURG     CLEAR     65  60  84 CALM      29.91R
YORK           CLEAR     58  56  93 CALM      29.93R
$$

PAZ038>040-043-044-047-048-054-055-060>062-067>071-021100-
EASTERN PENNSYLVANIA

CITY           SKY/WX    TMP DP  RH WIND       PRES   REMARKS
SCRANTON       CLEAR     59  55  87 E6        29.93S
MOUNT POCONO   CLEAR     56  53  90 NW7       29.95S
ALLENTOWN      CLEAR     60  56  86 CALM      29.91S
QUAKERTOWN*    SUNNY     59  57  94 CALM      29.92S
READING        CLEAR     62  58  86 CALM      29.91R
LANCASTER      CLEAR     58  57  97 N5        29.92S
COATESVILLE    SUNNY     63  59  88 CALM      29.93S
POTTSTOWN      CLEAR     60  59  96 CALM      29.93R
BLUE BELL      CLEAR     63  61  94 CALM      29.90R
DOYLESTOWN     CLEAR     61  59  93 CALM      29.91R
WILLOW GROVE   NOT AVBL
NORTH PHILA    CLEAR     67  56  67 CALM      29.92R
PHILADELPHIA   PTCLDY    71  57  61 CALM      29.91R
$$


USA.gov is the U.S. government's official web portal to all federal, state and local government web resources and services.